Location: Navajo
(48.7922°N, 105.0603°W)
Time: 10:19:13
(UTC+00:00)

ITUPSAT 1 - Pass Details

Date: 05 July 2022
Orbit: 701 x 711 km, 98.6° (Epoch: 13 August)

Event Time Altitude Azimuth Distance (km) Brightness Sun altitude
Rises 04:00:53 0° 11° (N) 3,114 ? -7.5°
Reaches altitude 10° 04:03:11 10° 7° (N) 2,192 ? -7.8°
Maximum altitude 04:07:52 56° 290° (WNW) 842 ? -8.3°
Drops below altitude 10° 04:12:33 10° 213° (SSW) 2,182 ? -8.8°
Sets 04:14:50 0° 209° (SSW) 3,097 ? -9.0°
